• Join FlightAware (Why Join?)
  • Login
  • US Flag 
09:40PM EST


 

Airport Tracker/Info


-or-


 

Live Flight TrackerFlight Track Log ✈ FDX1155 ✈ 20-Sep-2013 ✈ KAFW - KIAH

Flight Track Log - Related Links

Times and Time Zones

All times are in EDT time to prevent confusion due to time zone crossing. See the FDX1155 flight status page for this flight to view local times or setup timezone preferences in your user account.

Time Position Orientation Groundspeed Altitude Reporting Facility
EDT Latitude Longitude Course Direction KTS MPH feet Rate Location/Type
05:06AM 32.9700 -97.3150 172° South 172 198 1,400  Level FlightAware
05:06AM 32.9550 -97.3140 177° South 171 197 2,200 1,800 Climbing FlightAware
05:06AM 32.9360 -97.3140 180° South 193 222 2,600 1,317 Climbing FlightAware
05:07AM 32.9180 -97.3140 180° South 214 246 3,100 1,500 Climbing FlightAware
05:07AM 32.8970 -97.3150 182° South 235 270 3,600 1,571 Climbing FlightAware
05:07AM 32.8710 -97.3160 182° South 257 296 4,200 1,857 Climbing FlightAware
05:08AM 32.8510 -97.3130 173° South 260 299 4,900 2,308 Climbing FlightAware
05:08AM 32.8450 -97.3110 164° South 263 303 5,200 2,600 Climbing FlightAware
05:08AM 32.8200 -97.2970 155° Southeast 265 305 6,200 2,739 Climbing FlightAware
05:08AM 32.7930 -97.2810 154° Southeast 270 311 7,300 2,850 Climbing FlightAware
05:09AM 32.7720 -97.2700 156° South 273 314 8,100 2,375 Climbing FlightAware
05:09AM 32.7370 -97.2500 154° Southeast 283 326 9,200 2,375 Climbing FlightAware
05:10AM 32.7140 -97.2380 156° South 286 329 10,000 1,964 Climbing FlightAware
05:10AM 32.6690 -97.2120 154° Southeast 307 353 11,000 1,481 Climbing FlightAware
05:11AM 32.6090 -97.1770 154° Southeast 339 390 12,000 1,714 Climbing FlightAware
05:11AM 32.5560 -97.1480 155° Southeast 357 411 13,200 2,261 Climbing FlightAware
05:12AM 32.5010 -97.1170 155° Southeast 368 423 14,600 1,865 Climbing FlightAware
05:13AM 32.4420 -97.0850 155° Southeast 383 441 15,500 1,800 Climbing FlightAware
05:13AM 32.3890 -97.0550 154° Southeast 381 438 16,700 1,765 Climbing FlightAware
05:14AM 32.3310 -97.0230 155° Southeast 394 453 17,500 1,250 Climbing FlightAware
05:14AM 32.2710 -96.9900 155° Southeast 405 466 18,200 1,324 Climbing FlightAware
05:15AM 32.2155 -96.9583 154° Southeast 414 476 19,000 1,500 Climbing FlightAware ADS-B
05:16AM 32.1526 -96.9242 155° Southeast 419 482 19,900 1,433 Climbing FlightAware ADS-B
05:16AM 32.0979 -96.8936 155° Southeast 420 483 20,600 1,238 Climbing FlightAware ADS-B
05:17AM 32.0405 -96.8616 155° Southeast 433 498 21,200 1,219 Climbing FlightAware ADS-B
05:17AM 31.9807 -96.8282 155° Southeast 438 504 21,900 1,164 Climbing FlightAware ADS-B
05:18AM 31.9161 -96.7925 155° Southeast 443 510 22,500 1,015 Climbing FlightAware ADS-B
05:18AM 31.8597 -96.7614 155° Southeast 451 519 23,000 492 Climbing FlightAware ADS-B
05:19AM 31.8014 -96.7289 155° Southeast 451 519 23,000  Level FlightAware ADS-B
05:20AM 31.6914 -96.6695 155° Southeast 453 521 23,000  Level FlightAware ADS-B
05:20AM 31.6462 -96.6443 155° Southeast 454 522 23,000  Level FlightAware ADS-B
05:20AM 31.6231 -96.6287 150° Southeast 457 526 23,000  Level FlightAware ADS-B
05:20AM 31.6082 -96.6178 148° Southeast 459 528 23,000  Level FlightAware ADS-B
05:21AM 31.5543 -96.5735 145° Southeast 458 527 23,000  Level FlightAware ADS-B
05:21AM 31.5011 -96.5301 145° Southeast 454 522 23,000  Level FlightAware ADS-B
05:22AM 31.4493 -96.4888 146° Southeast 445 512 23,000  Level FlightAware ADS-B
05:22AM 31.3971 -96.4466 145° Southeast 441 507 23,000  Level FlightAware ADS-B
05:23AM 31.3446 -96.4049 146° Southeast 444 511 23,000  Level FlightAware ADS-B
05:24AM 31.2904 -96.3629 146° Southeast 448 516 23,000  Level FlightAware ADS-B
05:24AM 31.2384 -96.3220 146° Southeast 449 517 23,000  Level FlightAware ADS-B
05:25AM 31.1855 -96.2798 146° Southeast 450 518 23,000  Level FlightAware ADS-B
05:25AM 31.1332 -96.2375 145° Southeast 450 518 23,000 -393 Level FlightAware ADS-B
05:26AM 31.0801 -96.1957 146° Southeast 460 529 22,600 -1,400 Descending FlightAware ADS-B
05:26AM 31.0273 -96.1543 146° Southeast 450 518 21,600 -2,164 Descending FlightAware ADS-B
05:27AM 30.9744 -96.1122 146° Southeast 444 511 20,400 -2,323 Descending FlightAware ADS-B
05:27AM 30.9222 -96.0710 146° Southeast 437 503 19,200 -2,361 Descending FlightAware ADS-B
05:28AM 30.8718 -96.0318 146° Southeast 428 493 18,000 -2,262 Descending FlightAware ADS-B
05:28AM 30.8226 -95.9934 146° Southeast 419 482 16,900 -2,164 Descending FlightAware ADS-B
05:29AM 30.7747 -95.9559 146° Southeast 410 472 15,800 -2,164 Descending FlightAware ADS-B
05:29AM 30.7266 -95.9182 146° Southeast 400 460 14,700 -2,129 Descending FlightAware ADS-B
05:30AM 30.6783 -95.8801 146° Southeast 395 455 13,600 -2,095 Descending FlightAware ADS-B
05:30AM 30.6303 -95.8425 146° Southeast 383 441 12,500 -1,781 Descending FlightAware ADS-B
05:31AM 30.5852 -95.8074 146° Southeast 368 423 11,700 -1,404 Descending FlightAware ADS-B
05:31AM 30.5632 -95.7911 147° Southeast 360 414 11,400 -1,091 Descending FlightAware ADS-B
05:31AM 30.5518 -95.7856 157° South 358 412 11,300 -923 Descending FlightAware ADS-B
05:31AM 30.5424 -95.7818 161° South 357 411 11,200 -900 Descending FlightAware ADS-B
05:31AM 30.5199 -95.7757 167° South 356 410 11,000 -808 Descending FlightAware ADS-B
05:32AM 30.4611 -95.7660 172° South 333 383 10,500 -712 Descending FlightAware ADS-B
05:32AM 30.4293 -95.7601 171° South 309 356 10,300 -480 Descending FlightAware ADS-B
05:33AM 30.3899 -95.7546 173° South 279 321 10,100 -375 Descending FlightAware ADS-B
05:33AM 30.3666 -95.7507 172° South 261 300 10,000 -400 Descending FlightAware ADS-B
05:33AM 30.3537 -95.7477 169° South 256 295 9,900 -818 Descending FlightAware ADS-B
05:34AM 30.3408 -95.7447 169° South 255 293 9,700 -818 Descending FlightAware ADS-B
05:34AM 30.3288 -95.7420 169° South 255 293 9,600 -692 Descending FlightAware ADS-B
05:34AM 30.3108 -95.7382 170° South 254 292 9,400 -889 Descending FlightAware ADS-B
05:34AM 30.2975 -95.7358 171° South 250 288 9,200 -1,000 Descending FlightAware ADS-B
05:34AM 30.2897 -95.7344 171° South 247 284 9,100 -667 Descending FlightAware ADS-B
05:34AM 30.2766 -95.7324 172° South 238 274 9,000 -444 Descending FlightAware ADS-B
05:35AM 30.2605 -95.7304 174° South 227 261 8,900 -500 Descending FlightAware ADS-B
05:35AM 30.2511 -95.7292 174° South 220 253 8,800 -462 Descending FlightAware ADS-B
05:35AM 30.2474 -95.7285 171° South 218 251 8,800 -500 Level FlightAware ADS-B
05:35AM 30.2392 -95.7272 172° South 213 245 8,700 -571 Descending FlightAware ADS-B
05:35AM 30.2266 -95.7246 170° South 210 242 8,600 -353 Descending FlightAware ADS-B
05:35AM 30.2228 -95.7237 168° South 210 242 8,600 -545 Level FlightAware ADS-B
05:35AM 30.2166 -95.7224 170° South 210 242 8,500 -667 Descending FlightAware ADS-B
05:36AM 30.2061 -95.7203 170° South 210 242 8,400 -857 Descending FlightAware ADS-B
05:36AM 30.1965 -95.7186 171° South 207 238 8,200 -1,385 Descending FlightAware ADS-B
05:36AM 30.1932 -95.7180 171° South 207 238 8,100 -1,714 Descending FlightAware ADS-B
05:36AM 30.1825 -95.7164 173° South 206 237 7,800 -1,250 Descending FlightAware ADS-B
05:36AM 30.1701 -95.7144 172° South 206 237 7,600 -1,000 Descending FlightAware ADS-B
05:36AM 30.1598 -95.7126 171° South 208 239 7,400 -1,317 Descending FlightAware ADS-B
05:37AM 30.1312 -95.7068 170° South 211 243 6,700 -1,421 Descending FlightAware ADS-B
05:37AM 30.1233 -95.7051 169° South 212 244 6,500 -1,579 Descending FlightAware ADS-B
05:37AM 30.1133 -95.7033 171° South 213 245 6,200 -1,500 Descending FlightAware ADS-B
05:37AM 30.1040 -95.7015 170° South 211 243 6,000 -1,059 Descending FlightAware ADS-B
05:38AM 30.0962 -95.7002 172° South 207 238 5,900 -1,000 Descending FlightAware ADS-B
05:38AM 30.0818 -95.6984 174° South 201 231 5,600 -1,400 Descending FlightAware ADS-B
05:38AM 30.0688 -95.6968 174° South 200 230 5,200 -1,765 Descending FlightAware ADS-B
05:38AM 30.0654 -95.6961 170° South 200 230 5,100 -2,000 Descending FlightAware ADS-B
05:38AM 30.0628 -95.6952 163° South 201 231 5,000 -1,714 Descending FlightAware ADS-B
05:38AM 30.0596 -95.6936 157° South 202 232 4,900 -1,714 Descending FlightAware ADS-B
05:38AM 30.0568 -95.6921 155° Southeast 204 235 4,800 -1,714 Descending FlightAware ADS-B
05:38AM 30.0543 -95.6901 145° Southeast 207 238 4,700 -1,714 Descending FlightAware ADS-B
05:38AM 30.0520 -95.6869 130° Southeast 211 243 4,600 -2,000 Descending FlightAware ADS-B
05:38AM 30.0502 -95.6842 128° Southeast 212 244 4,500 -1,714 Descending FlightAware ADS-B
05:39AM 30.0486 -95.6802 115° Southeast 212 244 4,400 -1,200 Descending FlightAware ADS-B
05:39AM 30.0465 -95.6749 115° Southeast 216 249 4,300 -1,091 Descending FlightAware ADS-B
05:39AM 30.0418 -95.6562 106° East 212 244 4,000 -774 Descending FlightAware ADS-B
05:39AM 30.0372 -95.6406 109° East 201 231 3,900 -545 Descending FlightAware ADS-B
05:39AM 30.0345 -95.6316 109° East 199 229 3,800 -750 Descending FlightAware ADS-B
05:39AM 30.0325 -95.6258 111° Southeast 191 220 3,700 -1,000 Descending FlightAware ADS-B
05:40AM 30.0279 -95.6115 110° East 189 217 3,400 -1,200 Descending FlightAware ADS-B
05:40AM 30.0234 -95.5974 110° East 186 214 3,100 -600 Descending FlightAware ADS-B
05:40AM 30.0188 -95.5838 111° Southeast 179 206 3,100  Level FlightAware ADS-B
05:40AM 30.0140 -95.5696 111° Southeast 180 207 3,100  Level FlightAware ADS-B
05:41AM 30.0092 -95.5560 112° Southeast 183 211 3,100  Level FlightAware ADS-B
05:41AM 30.0058 -95.5450 109° East 183 211 3,100  Level FlightAware ADS-B
05:41AM 30.0038 -95.5394 113° Southeast 183 211 3,100  Level FlightAware ADS-B
05:41AM 29.9992 -95.5248 110° East 184 212 3,100 -214 Level FlightAware ADS-B
05:41AM 29.9953 -95.5128 111° Southeast 185 213 3,000 -600 Descending FlightAware ADS-B
05:42AM 29.9940 -95.5060 102° East 188 216 2,900 -706 Descending FlightAware ADS-B
05:42AM 29.9934 -95.4960 94° East 188 216 2,800 -1,154 Descending FlightAware ADS-B
05:42AM 29.9932 -95.4801 91° East 186 214 2,400 -1,500 Descending FlightAware ADS-B
05:42AM 29.9932 -95.4643 90° East 183 211 2,000 -1,355 Descending FlightAware ADS-B
05:43AM 29.9933 -95.4503 90° East 164 189 1,700 -750 Descending FlightAware ADS-B
05:43AM 29.9932 -95.4304 90° East 144 166 1,500 -667 Descending FlightAware ADS-B
05:43AM 29.9933 -95.4149 90° East 144 166 1,200 -833 Descending FlightAware ADS-B
05:44AM 29.9933 -95.4027 90° East 144 166 1,000 -750 Descending FlightAware ADS-B
05:44AM 29.9933 -95.3904 90° East 143 165 800 -774 Descending FlightAware ADS-B
05:44AM 29.9933 -95.3789 90° East 143 165 600 -750 Descending FlightAware ADS-B
05:44AM 29.9934 -95.3661 89° East 144 166 400 -750 Descending FlightAware ADS-B
05:44AM 29.9935 -95.3607 89° East 143 165 300 -857 Descending FlightAware ADS-B
05:45AM 29.9935 -95.3422 90° East 115 132 -720 Descending FlightAware ADS-B